Regional Weather Roundup
Issued by NWS Wakefield, VA

Home | Current Version | Previous Version | Text Only | Print | Product List | Glossary On
Versions: 1 2 3 4 5 6 7 8 9 10 11 12 13 14 15 16 17 18 19 20 21 22 23 24 25 26 27
000
ASUS41 KAKQ 240915
RWRAKQ

REGIONAL WEATHER ROUNDUP
NATIONAL WEATHER SERVICE WAKEFIELD VA
500 AM EDT SAT JUN 24 2017

Note: "fair" indicates few or no clouds below 12,000 feet with no
significant weather and/or obstructions to visibility. * = Denotes
station may not report precipitation (e.g., rain,snow,etc.),
thunder or fog.

VAZ042-051-052>054-056-241000-
NORTHERN VIRGINIA

CITY           SKY/WX    TMP DP  RH WIND       PRES   REMARKS
WASH NATIONAL  LGT RAIN  75  72  90 NW18G36   29.64R FOG
DULLES         CLOUDY    70  67  90 NW12      29.66R
FORT BELVOIR   LGT RAIN  75  70  83 W14       29.64R
QUANTICO       MOCLDY    80  75  84 W12       29.63R
FREDERICKSBRG* MOCLDY    80  74  83 W15G22    29.62R
STAFFORD*      MOCLDY    78  75  90 W12G21    29.68R
WARRENTON      CLOUDY    74  67  76 NW17G28   29.68R
CULPEPER*      CLOUDY    74  69  84 NW10G18   29.70R
MANASSAS*      MOCLDY    72  70  93 NW16      29.67R
LEESBURG*      CLOUDY   N/A N/A N/A NW13G20   29.67R
WINCHESTER     CLOUDY    68  64  88 W6        29.71R
FRONT ROYAL*   CLOUDY    70  68  94 NW7       29.71R
LURAY*         PTSUNNY   72  64  78 NW15G21   29.73R
$$

VAZ048-049-060>072-079>083-241000-
CENTRAL AND SOUTH CENTRAL VIRGINIA

CITY           SKY/WX    TMP DP  RH WIND       PRES   REMARKS
RICHMOND       CLOUDY    82  74  76 SW16G31   29.66S
CHESTERFIELD*  CLOUDY    82  73  74 SW16G28   29.68R
PETERSBURG*    CLOUDY    80  71  73 SW16G24   29.70R
HANOVER        CLOUDY    83  70  64 SW17G31   29.66S
TAPPAHANNOCK*  CLOUDY    83  67  59 SW14G25   29.65S
QUINTON*       CLOUDY    82  75  81 S9G24     29.66S
CHARLOTTSVILLE CLOUDY    76  70  82 W3        29.72R
GORDONSVILLE*  CLOUDY    76  71  85 W6        29.70R
ORANGE*        CLOUDY    73  70  88 W10       29.70R
LOUISA*        CLOUDY    81  75  83 W10G22    29.68R
BUMPASS*       CLOUDY    76  74  96 SW9       29.65R
FARMVILLE*     PTCLDY    79  66  63 SW14G22   29.71R
CREWE*         PTSUNNY   81  67  62 SW9G25    29.71R
FORT PICKETT*  CLOUDY    80  73  80 SW17G26   29.72R
CHASE CITY*    FAIR      78  72  80 W10G20    29.77R
CLARKSVILLE*   FAIR      77  73  88 SW12G24   29.79R
SOUTH HILL*    CLOUDY    78  74  87 SW18G31   29.82R
LAWRENCEVILLE* CLOUDY    79  73  82 MISG      29.74R
EMPORIA*       LGT RAIN  77  72  83 S10G18    29.76S
$$

VAZ088>098-241000-
SOUTHEAST VIRGINIA

CITY           SKY/WX    TMP DP  RH WIND       PRES   REMARKS
NORFOLK        CLEAR     79  70  74 S24G32    29.73F
VIRGINIA BEACH PTCLDY    77  66  68 SW13G24   29.74F
NORFOLK NAVAL  PTCLDY    80  69  69 SW17G28   29.74F
WEST POINT*    CLOUDY    81  72  74 S16G25    29.68F
SALUDA*        FAIR      80  75  84 S17G26    29.66F
NEWPORT NEWS   MOCLDY    79  71  76 SW22G31   29.72F
LANGLEY AFB    PTCLDY    79  71  77 SW21G29   29.71F
FORT EUSTIS    CLOUDY    79  73  79 SW13G32   29.70S
WILLIAMSBURG*  CLOUDY    81  73  78 SW17G24   29.71S
HR EXEC AP*    FAIR      77  68  73 SW15G22   29.73F
FRANKLIN*      PTCLDY    77  72  83 SW16      29.76S
US460-WAKEFLD  LGT RAIN  79  73  82 SW15G26   29.71F
$$

VAZ020-022-025-037-045-241000-
WEST CENTRAL AND SOUTHWEST VIRGINIA

CITY           SKY/WX    TMP DP  RH WIND       PRES   REMARKS
STAUNTON*      CLEAR     68  64  86 NW6       29.79R
WAYNESBORO*    CLOUDY    68  65  89 CALM      29.80R
HOT SPRINGS VA CLOUDY    59  57  94 W18G26    29.92R
LYNCHBURG      CLEAR     72  64  76 W8G20     29.81R
DANVILLE       MOCLDY    75  69  81 W12       29.83R
SOUTH BOSTON*  FAIR      78  67  68 SW15G26   29.79R
MARTINSVILLE   CLEAR     66  64  91 CALM      29.89R
ROANOKE        PTCLDY    69  63  81 W5        29.87R
BLACKSBURG     MOCLDY    66  60  80 W3        29.95R
DUBLIN*        PTCLDY    66  57  72 W8        29.95R
MARION*        CLOUDY    64  60  88 W7        30.00R
HILLSVILLE*    CLEAR     63  58  83 CALM      29.96R
RICHLANDS*     CLOUDY    61  61  99 S3        29.99R
WISE*          MOCLDY    61  61 100 CALM      30.00S
ABINGDON*      CLOUDY    67  67 100 W5        29.97R
$$

MDZ021>025-VAZ099-100-241000-
SOUTHERN MARYLAND AND THE DELMARVA PENINSULA

CITY           SKY/WX    TMP DP  RH WIND       PRES   REMARKS
PATUXENT RIVER CLOUDY    82  74  76 S17G29    29.61F
BAY BRIDGE APT CLOUDY    79  73  83 S15G21    29.57F
LEONARDTOWN    CLOUDY    81  72  74 S14G21    29.63F
DOVER          CLOUDY    80  80  98 S18       29.58F
GEORGETOWN     CLOUDY    82  74  76 SW17G24   29.64F
EASTON         CLOUDY    83  74  74 SW17G24   29.64F
CAMBRIDGE      CLOUDY    81  75  83 S13G22    29.62F
SALISBURY      CLOUDY    80  75  84 SW18G30   29.65F
OCEAN CITY     CLOUDY    76  73  91 SW21G31   29.68F
WALLOPS ISLAND CLOUDY    71  71 100 S20       29.69F
ACCOMACK*      CLOUDY    80  71  75 SW18G29   29.69F
$$

NCZ012>017-030>032-241000-
NORTH CENTRAL AND EASTERN NORTH CAROLINA

CITY           SKY/WX    TMP DP  RH WIND       PRES   REMARKS
ROANOKE RAPIDS LGT RAIN  77  73  88 SW20      29.78S
RALEIGH        CLOUDY    77  74  90 W13G26    29.84S
ELIZABETH CITY CLEAR     79  71  76 S22G30    29.80F
AHOSKIE*         N/A     76  70  82 S10G17    29.78F
EDENTON*       CLEAR     80  71  74 SW20G25   29.83F
CURRITUCK*     CLEAR     79  69  69 SW10G23   29.80F
KILL DEVIL HLS CLEAR     79  70  74 SW14G22   29.83S
MANTEO         CLEAR     79  73  81 SW22G28   29.85S
CAPE HATTERAS  MOCLDY    79  74  84 SW20G28   29.91S
TARBORO*       NOT AVBL
GOLDSBORO      CLEAR     78  76  94 SW14G23   29.85F
WASHINGTON     CLEAR    N/A N/A N/A SW13G21   29.86F
GREENVILLE     CLEAR     77  72  83 SW14G29   29.87F
NEW BERN       CLEAR     78  74  87 SW14G22   29.90F
WILMINGTON     MOCLDY    80  74  81 SW14G26   29.93S
$$

VAZ048-241000-
ELSEWHERE

CITY           SKY/WX    TMP DP  RH WIND       PRES   REMARKS
HARRISBURG PA  CLOUDY    71  70  96 NW8       29.62R FOG
BALTIMORE      CLOUDY    76  75  97 S9        29.55F
ANNAPOLIS      CLOUDY    78  77  96 S12       29.56F
ANDREWS AFB    DRIZZLE   77  73  88 W16G24    29.59S
PHILADELPHIA   LGT RAIN  77  73  87 SW9       29.57F
GREENSBORO     CLOUDY    75  71  87 W9        29.86S
ROCKY MOUNT    MOCLDY    77  72  84 S16G25    29.83S
$$

VAZ100-241000-
MARINE

STATION/POSITION TIME  TEMP    WIND        PRES    WAVE   SWELL
                       AIR SEA DIR/SP/G            HT/PER HT/PER
                 (UTC) (F)     (DEG/KT/KT) (MB)    (FT/S) (FT/S)
BRANDYWINE LGT   0848          220/ 22/ 24   N/A
CAPE MAY NJ      0848   74 69  160/  7/ 10 1003.2F
LEWES DE         0848   81 66  230/ 10/ 16 1003.3F
15NM E FENWICK I 0850   71 66  200/ 21/ 25 1004.9F   6/ 6   2/ 9
OCEAN-CITY-INLET 0848   68 69  220/ 20/ 25 1005.2F
WACHAPREAGUE VA  0848   79 81  180/ 14/ 19 1005.6F
THOMAS POINT MD  0900   80 78  190/ 22/ 24   N/A
GOOSES REEF MD   0850   81     250/ 19/ 25 1002.4F
COVE POINT MD    0848   81     210/ 22/ 31 1003.2F
SOLOMONS ISLAND  0848   81 77  200/ 18/ 26   N/A
BISHOPS HEAD MD  0848   81 80  190/ 23/ 28 1003.7F
PINEY POINT MD   0848          230/ 22/ 23   N/A
POTOMAC MD       0850   82     230/ 19/ 25 1002.4F
CAMBRIDGE MD     0848   81 81              1003.5F
LEWISETTA VA     0848   82 79  240/ 21/ 28 1003.3F
RAPPAHANNOCK LGT 0848          180/ 21/ 26 1006.1F
STINGRAY PT      0850   80     240/ 23/ 31 1005.0F
YORK RVR RNG VA  0848   80     230/ 27/ 34 1005.4F
YORKTOWN VA      0848   80 76  210/ 18/ 28 1005.1F
JAMESTOWN VA     0850   80     200/ 16/ 21   N/A
DOMINION TERM VA 0848   79     220/ 22/ 30 1006.4F
KIPTOPEKE VA     0848      76  210/ 19/ 23   N/A
CHES BAY BRIDGE  0848   79 74  230/ 26/ 34 1006.1F
CAPE HENRY VA    0848   79     200/ 15/ 24   N/A
WILLOUBY STN VA  0848   79     210/ 21/ 26 1006.2F
S CRANEY ISL VA  0848   79     210/ 14/ 25 1006.7F
CAPE HENRY BUOY  0830      71                N/A     4/ 4
1ST LANDING BUOY 0850   78                 1006.4F
CAPE CHARLES BUO 0851      65                N/A     4/ 5
64NM E OF VA BCH 0850   74 71  210/ 19/ 23 1009.6F   6/ 7   2/10
DUCK PIER NC     0848   80 61  210/ 19/ 29 1009.3F
44100 DUCK FRF   0805      69                N/A     4/ 6
OREGON INLET NC  0848          210/ 29/ 34   N/A
HATTERAS NC      0848   78 78  230/ 17/ 23 1012.5S
DIAMOND SHLS NC  0850   81 80  230/ 23/ 29 1012.4F   8/ 7   2/ 9
CAPE LOOKOUT NC  0800   80     220/ 18/ 23 1013.1S
$$




USA.gov is the U.S. government's official web portal to all federal, state and local government web resources and services.